Location: Krakow
(50.0830°N, 19.9170°E)
Time: 11:46:52
(UTC+01:00)

Tiros 1 - All Passes

Search period start: 15 March 2026 00:00
Search period end: 25 March 2026 00:00
Orbit: 618 x 650 km, 48.4° (Epoch: 14 March)

Date Brightness Start Highest point End Pass type
(mag) Time Alt. Az. Time Alt. Az. Time Alt. Az.
15 Mar - 01:27:35 10° W 01:32:19 74° S 01:37:00 10° E visible
15 Mar - 03:09:27 10° W 03:14:02 52° SSW 03:18:34 10° ESE visible
15 Mar - 04:51:54 10° W 04:55:16 20° SW 04:58:36 10° S visible
15 Mar - 22:26:36 10° SSW 22:30:38 29° SSE 22:34:41 10° E night (unlit)
16 Mar - 00:07:25 10° WSW 00:12:05 63° SSE 00:16:45 10° E night (unlit)
16 Mar - 01:49:10 10° W 01:53:52 70° S 01:58:32 10° ESE visible
16 Mar - 03:31:08 10° W 03:35:27 36° SSW 03:39:42 10° SE visible
16 Mar - 05:15:15 10° WSW 05:16:21 11° SW 05:17:28 10° SSW visible
16 Mar - 21:08:19 10° S 21:10:54 15° SE 21:13:29 10° ESE night (unlit)
16 Mar - 22:47:30 10° SW 22:51:59 43° SSE 22:56:27 10° E night (unlit)
17 Mar - 00:28:55 10° W 00:33:38 73° S 00:38:20 10° E night (unlit)
17 Mar - 02:10:46 10° W 02:15:24 57° SSW 02:19:59 10° ESE visible
17 Mar - 03:53:01 10° W 03:56:42 23° SW 04:00:22 10° SSE visible
17 Mar - 21:28:14 10° SSW 21:32:03 25° SE 21:35:54 10° E night (unlit)
17 Mar - 23:08:46 10° WSW 23:13:25 59° SSE 23:18:05 10° E night (unlit)
18 Mar - 00:50:29 10° W 00:55:12 72° S 00:59:53 10° ESE night (unlit)
18 Mar - 02:32:24 10° W 02:36:50 41° SSW 02:41:12 10° SE visible
18 Mar - 04:15:37 10° WSW 04:17:50 13° SW 04:20:03 10° SSW visible
18 Mar - 20:10:34 10° SSE 20:12:22 12° SE 20:14:11 10° ESE night (unlit)
18 Mar - 21:48:58 10° SW 21:53:21 38° SSE 21:57:44 10° E night (unlit)
18 Mar - 23:30:14 10° WSW 23:34:57 71° S 23:39:39 10° E night (unlit)
19 Mar - 01:12:03 10° W 01:16:44 62° SSW 01:21:22 10° ESE night (unlit)
19 Mar - 02:54:11 10° W 02:58:08 27° SSW 03:02:03 10° SSE visible
19 Mar - 20:29:56 10° SSW 20:33:29 21° SE 20:37:03 10° E visible
19 Mar - 22:10:09 10° WSW 22:14:46 54° SSE 22:19:23 10° E night (unlit)
19 Mar - 23:51:46 10° W 23:56:31 73° S 00:01:13 10° E night (unlit)
20 Mar - 01:33:40 10° W 01:38:11 46° SSW 01:42:40 10° SE night (unlit)
20 Mar - 03:16:27 10° WSW 03:19:19 16° SW 03:22:09 10° S visible
20 Mar - 20:50:28 10° SW 20:54:43 34° SSE 20:59:00 10° E visible
20 Mar - 22:31:34 10° WSW 22:36:16 68° S 22:40:58 10° E night (unlit)
21 Mar - 00:13:21 10° W 00:18:03 66° S 00:22:43 10° ESE night (unlit)
21 Mar - 01:55:24 10° W 01:59:32 31° SSW 02:03:39 10° SSE night (unlit)
21 Mar - 19:31:42 10° S 19:34:54 18° SE 19:38:07 10° E visible
21 Mar - 21:11:32 10° SW 21:16:06 49° SSE 21:20:41 10° E visible
21 Mar - 22:53:05 10° W 22:57:49 74° S 23:02:32 10° E night (unlit)
22 Mar - 00:34:57 10° W 00:39:32 51° SSW 00:44:05 10° SE night (unlit)
22 Mar - 02:17:26 10° W 02:20:45 19° SW 02:24:02 10° S night (unlit)
22 Mar - 19:52:01 10° SSW 19:56:06 30° SSE 20:00:13 10° E visible
22 Mar - 21:32:53 10° WSW 21:37:35 65° SSE 21:42:16 10° E visible
22 Mar - 23:14:38 10° W 23:19:21 69° S 23:24:04 10° ESE night (unlit)
23 Mar - 00:56:37 10° W 01:00:55 35° SSW 01:05:11 10° SE night (unlit)
23 Mar - 02:41:08 10° SW 02:41:49 10° SW 02:42:29 10° SW night (unlit)
23 Mar - 18:33:37 10° S 18:36:21 15° SE 18:39:04 10° ESE visible
23 Mar - 20:12:57 10° SW 20:17:26 44° SSE 20:21:57 10° E visible
23 Mar - 21:54:23 10° W 21:59:07 73° S 22:03:50 10° E visible
23 Mar - 23:36:14 10° W 23:40:52 56° SSW 23:45:29 10° ESE night (unlit)
24 Mar - 01:18:31 10° W 01:22:10 22° SW 01:25:48 10° SSE night (unlit)
24 Mar - 18:53:37 10° SSW 18:57:29 26° SSE 19:01:24 10° E visible
24 Mar - 20:34:13 10° WSW 20:38:53 60° SSE 20:43:33 10° E visible
24 Mar - 22:15:56 10° W 22:20:39 72° S 22:25:22 10° ESE visible
